Location: Newark
(36.0797°N, 3.9744°E)
Time: 22:48:01
(UTC+00:00)

Vanguard 2 Rocket - Pass Details

Date: 14 December 2019
Orbit: 554 x 3326 km, 32.9° (Epoch: 24 January)

Event Time Altitude Azimuth Distance (km) Brightness Sun altitude
Rises 18:24:37 0° 263° (W) 6,788 12.8 -22.3°
Reaches altitude 10° 18:29:42 10° 262° (W) 5,430 11.9 -23.3°
Maximum altitude 18:44:26 76° 181° (S) 1,791 8.2 -26.2°
Enters shadow 18:47:55 45° 106° (ESE) 1,967 8.1 -26.9°
Drops below altitude 10° 18:52:29 10° 97° (E) 3,126 - -27.8°
Sets 18:54:39 0° 95° (E) 3,834 - -28.3°
